| time (UTC) | temp F | wind direction | speed MPH | gust MPH | rain 1hr in | rain 24hr in | rain mn in | humidity % | barometer mb |
| 20260504081549 | 55 | 242 | 1.0 | 3.0 | 0.00 | 0.01 | 0.00 | 71 | 1012.6 |
| 20260504044539 | 55 | 165 | 0.0 | 2.0 | 0.00 | 0.01 | 0.01 | 68 | 1014.4 |
| 20260504043038 | 55 | 0 | 0.0 | 1.0 | 0.00 | 0.01 | 0.01 | 68 | 1014.6 |
| 20260504041547 | 55 | 179 | 0.0 | 2.0 | 0.00 | 0.01 | 0.01 | 68 | 1014.6 |
| 20260504040045 | 55 | 0 | 0.0 | 2.0 | 0.00 | 0.01 | 0.01 | 69 | 1014.8 |
| 20260504034542 | 55 | 0 | 0.0 | 1.0 | 0.00 | 0.01 | 0.01 | 67 | 1015.0 |
| 20260504033040 | 56 | 169 | 0.0 | 2.0 | 0.00 | 0.01 | 0.01 | 65 | 1015.0 |
| 20260504031539 | 57 | 0 | 0.0 | 0.0 | 0.00 | 0.01 | 0.01 | 63 | 1015.2 |
| 20260504030049 | 58 | 0 | 0.0 | 2.0 | 0.00 | 0.01 | 0.01 | 61 | 1015.2 |
| 20260504024543 | 59 | 181 | 0.0 | 2.0 | 0.00 | 0.01 | 0.01 | 60 | 1014.9 |
| 20260504023042 | 60 | 206 | 1.0 | 5.0 | 0.00 | 0.01 | 0.01 | 58 | 1014.7 |
| 20260504021550 | 60 | 195 | 0.0 | 5.0 | 0.00 | 0.01 | 0.01 | 57 | 1014.6 |
| 20260504020047 | 60 | 129 | 2.0 | 6.0 | 0.00 | 0.01 | 0.01 | 56 | 1014.2 |
| 20260504014556 | 60 | 186 | 3.0 | 6.0 | 0.00 | 0.01 | 0.01 | 56 | 1014.3 |
| 20260504013047 | 60 | 172 | 1.0 | 5.0 | 0.00 | 0.01 | 0.01 | 56 | 1014.4 |
| 20260504011542 | 61 | 191 | 1.0 | 3.0 | 0.00 | 0.01 | 0.01 | 54 | 1014.7 |
| 20260504010041 | 62 | 206 | 1.0 | 4.0 | 0.00 | 0.01 | 0.01 | 53 | 1014.9 |
| 20260504004540 | 63 | 233 | 2.0 | 4.0 | 0.00 | 0.01 | 0.01 | 51 | 1014.7 |
| 20260504003047 | 64 | 206 | 2.0 | 5.0 | 0.00 | 0.01 | 0.01 | 49 | 1014.8 |
| 20260504001553 | 65 | 262 | 1.0 | 7.0 | 0.00 | 0.01 | 0.01 | 49 | 1014.8 |
| 20260504000048 | 66 | 179 | 3.0 | 7.0 | 0.00 | 0.01 | 0.01 | 47 | 1014.5 |
| 20260503234541 | 67 | 212 | 3.0 | 7.0 | 0.00 | 0.01 | 0.01 | 45 | 1014.9 |
| 20260503233056 | 67 | 195 | 3.0 | 9.0 | 0.00 | 0.01 | 0.01 | 44 | 1015.0 |
| 20260503231543 | 68 | 241 | 5.0 | 13.0 | 0.00 | 0.01 | 0.01 | 43 | 1015.2 |
| 20260503230047 | 69 | 210 | 2.0 | 12.0 | 0.00 | 0.01 | 0.01 | 43 | 1015.4 |
| 20260503224545 | 68 | 202 | 2.0 | 12.0 | 0.00 | 0.01 | 0.01 | 43 | 1015.3 |
| 20260503223042 | 68 | 193 | 5.0 | 12.0 | 0.00 | 0.01 | 0.01 | 42 | 1015.6 |
| 20260503221549 | 69 | 341 | 2.0 | 8.0 | 0.00 | 0.01 | 0.01 | 42 | 1015.9 |
| 20260503214546 | 69 | 167 | 4.0 | 9.0 | 0.00 | 0.01 | 0.01 | 43 | 1016.5 |
| 20260503213049 | 68 | 182 | 2.0 | 9.0 | 0.00 | 0.01 | 0.01 | 45 | 1016.7 |
| 20260503211542 | 68 | 217 | 3.0 | 10.0 | 0.00 | 0.01 | 0.01 | 45 | 1016.8 |
| 20260503210056 | 68 | 183 | 6.0 | 11.0 | 0.00 | 0.01 | 0.01 | 43 | 1017.2 |
| 20260503204558 | 68 | 333 | 2.0 | 10.0 | 0.00 | 0.09 | 0.01 | 43 | 1017.5 |
| 20260503203049 | 68 | 175 | 5.0 | 11.0 | 0.00 | 0.09 | 0.01 | 44 | 1017.8 |
| 20260503201546 | 67 | 146 | 3.0 | 10.0 | 0.00 | 0.09 | 0.01 | 44 | 1018.1 |
| 20260503200046 | 67 | 194 | 2.0 | 10.0 | 0.00 | 0.09 | 0.01 | 43 | 1018.6 |
| 20260503194540 | 66 | 231 | 5.0 | 11.0 | 0.00 | 0.09 | 0.01 | 41 | 1018.7 |
| 20260503193039 | 67 | 278 | 3.0 | 10.0 | 0.00 | 0.09 | 0.01 | 44 | 1019.1 |
| 20260503191538 | 66 | 219 | 3.0 | 11.0 | 0.00 | 0.09 | 0.01 | 46 | 1019.5 |
| 20260503190052 | 66 | 148 | 2.0 | 8.0 | 0.00 | 0.09 | 0.01 | 46 | 1019.9 |
| 20260503184544 | 65 | 190 | 4.0 | 12.0 | 0.00 | 0.09 | 0.01 | 44 | 1020.0 |
| 20260503183059 | 65 | 141 | 5.0 | 15.0 | 0.00 | 0.09 | 0.01 | 47 | 1020.2 |
| 20260503181538 | 65 | 310 | 4.0 | 10.0 | 0.00 | 0.09 | 0.01 | 45 | 1020.5 |
| 20260503180058 | 64 | 250 | 3.0 | 10.0 | 0.00 | 0.09 | 0.01 | 50 | 1020.6 |
| 20260503174544 | 64 | 334 | 3.0 | 9.0 | 0.00 | 0.09 | 0.01 | 46 | 1020.9 |
| 20260503173120 | 64 | 285 | 3.0 | 7.0 | 0.00 | 0.09 | 0.01 | 47 | 1021.0 |
| 20260503171545 | 62 | 265 | 2.0 | 10.0 | 0.00 | 0.09 | 0.01 | 47 | 1021.3 |